Flag for U.S.A. Weather past 2 weeks in Abilene, Texas, U.S.A.

Now
20 °F

Ice fog.


Feels Like: 8 °F
Forecast: 20 / 28 °F
Wind: 10 mph from Northeast

Location: Abilene Regional Airport

Current Time: Feb 27, 2015 at 5:36:17 PM

Latest Report: Feb 27, 2015 at 4:52 PM


Visibility: 4 mi

Pressure: 30.38 "Hg

Humidity: 89%

Dew point: 17 °F

Location of AbileneLocation

Historic Weather in Abilene — Graph

°F

Abilene temperature yesterday

Maximum temperature yesterday: 44 °F (at 2:52 AM)
Minimum temperature yesterday: 25 °F (at 11:58 AM)
Average temperature yesterday: 31 °F

Past Weeks' High & Low Weather Summary

 TemperatureHumidityPressure
High80 °F (Feb 20, 4:52 PM)100% (Feb 22, 10:52 AM)30.61 "Hg (Feb 22, 10:52 AM)
Low20 °F (Feb 27, 3:52 PM)23% (Feb 18, 5:52 PM)29.57 "Hg (Feb 20, 4:52 PM)
Average43 °F66%30.14 "Hg
* Reported Feb 12 3:52 PM — Feb 27 3:52 PM, Abilene, Weather by CustomWeather, © 2015

Note: Actual official high and low records may vary slightly from our data, if they occured in-between our weather recording intervals... More about our weather records

Advertising

Abilene weather history for previous 24 hours

 ConditionsComfort  
Time TempWeatherWind HumidityBarometerVisibility
3:52 PM
Fri, Feb 27
20 °FIce fog.10 mph89%30.38 "Hg4 mi
3:04 PM21 °FIce fog.8 mph85%30.34 "Hg2 mi
2:00 PM21 °FIce fog.8 mph85%30.36 "Hg4 mi
12:52 PM21 °FOvercast.9 mph81%30.43 "Hg8 mi
11:57 AM21 °FLight snow. More clouds than sun.9 mph81%30.40 "Hg2 mi
10:59 AM21 °FLight snow. Ice fog.9 mph85%30.42 "Hg2 mi
9:52 AM21 °FLight snow. Ice fog.10 mph85%30.46 "Hg1 mi
8:52 AM21 °FLight snow. Ice fog.9 mph88%30.43 "Hg1 mi
7:52 AM22 °FIce fog.8 mph85%30.42 "Hg5 mi
6:52 AM22 °FLight snow. Ice fog.8 mph89%30.41 "Hg1 mi
5:52 AM22 °FLight snow. Ice fog.9 mph89%30.38 "Hg1 mi
4:59 AM24 °FLight snow. Overcast.8 mph65%30.34 "Hg4 mi
3:52 AM25 °FOvercast.7 mph63%30.37 "Hg10 mi
2:52 AM25 °FOvercast.12 mph58%30.37 "Hg10 mi
1:52 AM25 °FOvercast.9 mph58%30.38 "Hg10 mi
12:52 AM25 °FMostly cloudy.9 mph58%30.38 "Hg10 mi
11:52 PM
Thu, Feb 26
26 °FOvercast.10 mph52%30.41 "Hg10 mi
10:52 PM27 °FOvercast.14 mph55%30.41 "Hg10 mi
9:52 PM28 °FOvercast.8 mph61%30.42 "Hg10 mi
8:52 PM29 °FOvercast.6 mph64%30.41 "Hg10 mi
7:52 PM28 °FOvercast.5 mph64%30.38 "Hg10 mi
6:52 PM28 °FOvercast.9 mph61%30.36 "Hg10 mi
5:52 PM29 °FOvercast.13 mph61%30.34 "Hg10 mi
Weather by CustomWeather, © 2015

See weather overviewHow to use our weather pages